contact: severine.martini@mio.osupytheas.fr, dominique.lefevre@mio.osupytheas.fr
Project:EMSO Ligure-ouest http://www.emso-fr.org/EMSO-France
Sensor Microcat Sea-Bird SBE37 SMP,  Serial 57510 
DOI : "https://doi.org/10.17882/97948" 
Title:EMSO Ligure Ouest : Data Bathybot capteur Microcat - deploiement 2023-04-28
Datetime,Profondeur,Latitude,Longitude,Temperature,Conductivite,Pression,Salinite
time,m,degree_north,degree_east,degree_C,S/m,db,PSU 
2023-10-29T00:00:49,2420,42.8014,5.9826,13.2983,4.59940,2453.649,38.4895
2023-10-29T00:03:49,2420,42.8014,5.9826,13.2980,4.59942,2453.612,38.4900
2023-10-29T00:06:49,2420,42.8014,5.9826,13.2982,4.59941,2453.657,38.4897
2023-10-29T00:09:49,2420,42.8014,5.9826,13.2981,4.59941,2453.627,38.4898
2023-10-29T00:12:49,2420,42.8014,5.9826,13.2980,4.59941,2453.627,38.4899
2023-10-29T00:15:49,2420,42.8014,5.9826,13.2982,4.59942,2453.627,38.4898
2023-10-29T00:18:49,2420,42.8014,5.9826,13.2981,4.59941,2453.627,38.4898
2023-10-29T00:21:49,2420,42.8014,5.9826,13.2979,4.59942,2453.604,38.4901
2023-10-29T00:24:49,2420,42.8014,5.9826,13.2982,4.59943,2453.604,38.4900
2023-10-29T00:27:49,2420,42.8014,5.9826,13.2980,4.59942,2453.627,38.4900
2023-10-29T00:30:49,2420,42.8014,5.9826,13.2982,4.59942,2453.604,38.4898
2023-10-29T00:33:49,2420,42.8014,5.9826,13.2976,4.59942,2453.604,38.4904
2023-10-29T00:36:49,2420,42.8014,5.9826,13.2982,4.59941,2453.627,38.4897
2023-10-29T00:39:49,2420,42.8014,5.9826,13.2979,4.59943,2453.604,38.4902
2023-10-29T00:42:49,2420,42.8014,5.9826,13.2978,4.59942,2453.582,38.4902
2023-10-29T00:45:49,2420,42.8014,5.9826,13.2978,4.59941,2453.590,38.4901
2023-10-29T00:48:49,2420,42.8014,5.9826,13.2979,4.59942,2453.612,38.4901
2023-10-29T00:51:49,2420,42.8014,5.9826,13.2979,4.59940,2453.612,38.4899
2023-10-29T00:54:49,2420,42.8014,5.9826,13.2981,4.59942,2453.627,38.4899
2023-10-29T00:57:49,2420,42.8014,5.9826,13.2983,4.59941,2453.604,38.4896
2023-10-29T01:00:49,2420,42.8014,5.9826,13.2982,4.59940,2453.604,38.4896
2023-10-29T01:03:49,2420,42.8014,5.9826,13.2980,4.59940,2453.582,38.4898
2023-10-29T01:06:49,2420,42.8014,5.9826,13.2979,4.59942,2453.604,38.4902
2023-10-29T01:09:49,2420,42.8014,5.9826,13.2980,4.59942,2453.627,38.4900
2023-10-29T01:12:49,2420,42.8014,5.9826,13.2982,4.59941,2453.582,38.4897
2023-10-29T01:15:49,2420,42.8014,5.9826,13.2981,4.59941,2453.582,38.4898
2023-10-29T01:18:49,2420,42.8014,5.9826,13.2981,4.59941,2453.619,38.4898
2023-10-29T01:21:49,2420,42.8014,5.9826,13.2979,4.59941,2453.582,38.4900
2023-10-29T01:24:49,2420,42.8014,5.9826,13.2981,4.59942,2453.627,38.4899
2023-10-29T01:27:49,2420,42.8014,5.9826,13.2979,4.59942,2453.582,38.4902
2023-10-29T01:30:49,2420,42.8014,5.9826,13.2979,4.59941,2453.582,38.4900
2023-10-29T01:33:49,2420,42.8014,5.9826,13.2978,4.59942,2453.604,38.4902
2023-10-29T01:36:49,2420,42.8014,5.9826,13.2985,4.59942,2453.590,38.4895
2023-10-29T01:39:49,2420,42.8014,5.9826,13.2979,4.59942,2453.627,38.4900
2023-10-29T01:42:49,2420,42.8014,5.9826,13.2983,4.59942,2453.590,38.4897
2023-10-29T01:45:49,2420,42.8014,5.9826,13.2979,4.59941,2453.619,38.4900
2023-10-29T01:48:49,2420,42.8014,5.9826,13.2983,4.59942,2453.590,38.4897
2023-10-29T01:51:49,2420,42.8014,5.9826,13.2982,4.59942,2453.567,38.4899
2023-10-29T01:54:49,2420,42.8014,5.9826,13.2980,4.59941,2453.582,38.4899
2023-10-29T01:57:49,2420,42.8014,5.9826,13.2984,4.59941,2453.582,38.4895
2023-10-29T02:00:49,2420,42.8014,5.9826,13.2982,4.59942,2453.604,38.4899
2023-10-29T02:03:49,2420,42.8014,5.9826,13.2983,4.59942,2453.604,38.4897
2023-10-29T02:06:49,2420,42.8014,5.9826,13.2982,4.59941,2453.604,38.4897
2023-10-29T02:09:49,2420,42.8014,5.9826,13.2982,4.59940,2453.559,38.4897
2023-10-29T02:12:49,2420,42.8014,5.9826,13.2982,4.59942,2453.627,38.4898
2023-10-29T02:15:49,2420,42.8014,5.9826,13.2982,4.59942,2453.604,38.4898
2023-10-29T02:18:49,2420,42.8014,5.9826,13.2978,4.59940,2453.567,38.4901
2023-10-29T02:21:49,2420,42.8014,5.9826,13.2976,4.59945,2453.627,38.4906
2023-10-29T02:24:49,2420,42.8014,5.9826,13.2980,4.59941,2453.641,38.4899
2023-10-29T02:27:49,2420,42.8014,5.9826,13.2981,4.59940,2453.604,38.4897
2023-10-29T02:30:49,2420,42.8014,5.9826,13.2980,4.59940,2453.582,38.4898
2023-10-29T02:33:49,2420,42.8014,5.9826,13.2981,4.59942,2453.627,38.4899
2023-10-29T02:36:49,2420,42.8014,5.9826,13.2979,4.59942,2453.604,38.4900
2023-10-29T02:39:49,2420,42.8014,5.9826,13.2978,4.59942,2453.604,38.4902
2023-10-29T02:42:49,2420,42.8014,5.9826,13.2978,4.59942,2453.627,38.4902
2023-10-29T02:45:49,2420,42.8014,5.9826,13.2979,4.59940,2453.582,38.4900
2023-10-29T02:48:49,2420,42.8014,5.9826,13.2981,4.59941,2453.619,38.4898
2023-10-29T02:51:49,2420,42.8014,5.9826,13.2983,4.59941,2453.590,38.4896
2023-10-29T02:54:49,2420,42.8014,5.9826,13.2978,4.59940,2453.604,38.4901
2023-10-29T02:57:49,2420,42.8014,5.9826,13.2982,4.59942,2453.627,38.4899
2023-10-29T03:00:49,2420,42.8014,5.9826,13.2982,4.59942,2453.612,38.4899
2023-10-29T03:03:49,2420,42.8014,5.9826,13.2981,4.59941,2453.641,38.4898
2023-10-29T03:06:49,2420,42.8014,5.9826,13.2979,4.59943,2453.649,38.4902
2023-10-29T03:09:49,2420,42.8014,5.9826,13.2979,4.59942,2453.627,38.4901
2023-10-29T03:12:49,2420,42.8014,5.9826,13.2981,4.59942,2453.627,38.4899
2023-10-29T03:15:49,2420,42.8014,5.9826,13.2979,4.59940,2453.649,38.4899
2023-10-29T03:18:49,2420,42.8014,5.9826,13.2979,4.59942,2453.612,38.4901
2023-10-29T03:21:49,2420,42.8014,5.9826,13.2978,4.59943,2453.687,38.4903
2023-10-29T03:24:49,2420,42.8014,5.9826,13.2985,4.59943,2453.649,38.4896
2023-10-29T03:27:49,2420,42.8014,5.9826,13.2982,4.59942,2453.709,38.4898
2023-10-29T03:30:49,2420,42.8014,5.9826,13.2977,4.59940,2453.627,38.4901
2023-10-29T03:33:49,2420,42.8014,5.9826,13.2979,4.59941,2453.649,38.4900
2023-10-29T03:36:49,2420,42.8014,5.9826,13.2982,4.59943,2453.627,38.4899
2023-10-29T03:39:49,2420,42.8014,5.9826,13.2980,4.59942,2453.687,38.4899
2023-10-29T03:42:49,2420,42.8014,5.9826,13.2979,4.59942,2453.672,38.4901
2023-10-29T03:45:49,2420,42.8014,5.9826,13.2977,4.59941,2453.672,38.4902
2023-10-29T03:48:49,2420,42.8014,5.9826,13.2980,4.59943,2453.657,38.4901
2023-10-29T03:51:49,2420,42.8014,5.9826,13.2979,4.59941,2453.649,38.4900
2023-10-29T03:54:49,2420,42.8014,5.9826,13.2981,4.59942,2453.672,38.4899
2023-10-29T03:57:49,2420,42.8014,5.9826,13.2978,4.59943,2453.672,38.4903
2023-10-29T04:00:49,2420,42.8014,5.9826,13.2979,4.59945,2453.695,38.4904
2023-10-29T04:03:49,2420,42.8014,5.9826,13.2978,4.59941,2453.695,38.4901
2023-10-29T04:06:49,2420,42.8014,5.9826,13.2983,4.59942,2453.672,38.4896
2023-10-29T04:09:49,2420,42.8014,5.9826,13.2981,4.59942,2453.695,38.4898
2023-10-29T04:12:49,2420,42.8014,5.9826,13.2983,4.59943,2453.695,38.4897
2023-10-29T04:15:49,2420,42.8014,5.9826,13.2979,4.59941,2453.695,38.4900
2023-10-29T04:18:49,2420,42.8014,5.9826,13.2979,4.59941,2453.695,38.4900
2023-10-29T04:21:49,2420,42.8014,5.9826,13.2981,4.59941,2453.717,38.4898
2023-10-29T04:24:49,2420,42.8014,5.9826,13.2982,4.59942,2453.740,38.4898
2023-10-29T04:27:49,2420,42.8014,5.9826,13.2984,4.59942,2453.717,38.4895
2023-10-29T04:30:49,2420,42.8014,5.9826,13.2979,4.59940,2453.740,38.4899
2023-10-29T04:33:50,2420,42.8014,5.9826,13.2979,4.59943,2453.717,38.4901
2023-10-29T04:36:49,2420,42.8014,5.9826,13.2979,4.59941,2453.717,38.4899
2023-10-29T04:39:49,2420,42.8014,5.9826,13.2980,4.59942,2453.740,38.4899
2023-10-29T04:42:49,2420,42.8014,5.9826,13.2979,4.59942,2453.717,38.4901
2023-10-29T04:45:49,2420,42.8014,5.9826,13.2983,4.59942,2453.754,38.4896
2023-10-29T04:48:49,2420,42.8014,5.9826,13.2981,4.59942,2453.717,38.4898
2023-10-29T04:51:49,2420,42.8014,5.9826,13.2981,4.59942,2453.740,38.4898
2023-10-29T04:54:49,2420,42.8014,5.9826,13.2979,4.59943,2453.740,38.4901
2023-10-29T04:57:49,2420,42.8014,5.9826,13.2978,4.59941,2453.740,38.4900
2023-10-29T05:00:49,2420,42.8014,5.9826,13.2981,4.59941,2453.740,38.4898
2023-10-29T05:03:49,2420,42.8014,5.9826,13.2983,4.59940,2453.762,38.4894
2023-10-29T05:06:49,2420,42.8014,5.9826,13.2977,4.59941,2453.785,38.4902
2023-10-29T05:09:49,2420,42.8014,5.9826,13.2978,4.59941,2453.740,38.4901
2023-10-29T05:12:49,2420,42.8014,5.9826,13.2982,4.59940,2453.785,38.4895
2023-10-29T05:15:49,2420,42.8014,5.9826,13.2979,4.59941,2453.800,38.4900
2023-10-29T05:18:49,2420,42.8014,5.9826,13.2979,4.59940,2453.770,38.4899
2023-10-29T05:21:49,2420,42.8014,5.9826,13.2978,4.59943,2453.785,38.4902
2023-10-29T05:24:49,2420,42.8014,5.9826,13.2982,4.59941,2453.785,38.4897
2023-10-29T05:27:49,2420,42.8014,5.9826,13.2978,4.59941,2453.807,38.4900
2023-10-29T05:30:49,2420,42.8014,5.9826,13.2980,4.59942,2453.770,38.4899
2023-10-29T05:33:49,2420,42.8014,5.9826,13.2979,4.59940,2453.770,38.4899
2023-10-29T05:36:49,2420,42.8014,5.9826,13.2979,4.59942,2453.793,38.4900
2023-10-29T05:39:49,2420,42.8014,5.9826,13.2978,4.59943,2453.807,38.4901
2023-10-29T05:42:49,2420,42.8014,5.9826,13.2979,4.59940,2453.807,38.4898
2023-10-29T05:45:49,2420,42.8014,5.9826,13.2980,4.59940,2453.807,38.4898
2023-10-29T05:48:49,2420,42.8014,5.9826,13.2982,4.59939,2453.785,38.4895
2023-10-29T05:51:49,2420,42.8014,5.9826,13.2978,4.59940,2453.807,38.4900
2023-10-29T05:54:49,2420,42.8014,5.9826,13.2978,4.59940,2453.807,38.4900
2023-10-29T05:57:49,2420,42.8014,5.9826,13.2982,4.59941,2453.830,38.4897
2023-10-29T06:00:49,2420,42.8014,5.9826,13.2978,4.59941,2453.807,38.4901
2023-10-29T06:03:49,2420,42.8014,5.9826,13.2978,4.59940,2453.853,38.4899
2023-10-29T06:06:49,2420,42.8014,5.9826,13.2979,4.59941,2453.807,38.4899
2023-10-29T06:09:49,2420,42.8014,5.9826,13.2979,4.59940,2453.853,38.4899
2023-10-29T06:12:49,2420,42.8014,5.9826,13.2979,4.59940,2453.830,38.4897
2023-10-29T06:15:49,2420,42.8014,5.9826,13.2981,4.59940,2453.830,38.4897
2023-10-29T06:18:49,2420,42.8014,5.9826,13.2973,4.59940,2453.830,38.4903
2023-10-29T06:21:49,2420,42.8014,5.9826,13.2973,4.59939,2453.793,38.4903
2023-10-29T06:24:49,2420,42.8014,5.9826,13.2979,4.59940,2453.807,38.4898
2023-10-29T06:27:49,2420,42.8014,5.9826,13.2976,4.59939,2453.830,38.4900
2023-10-29T06:30:49,2420,42.8014,5.9826,13.2978,4.59940,2453.830,38.4900
2023-10-29T06:33:49,2420,42.8014,5.9826,13.2978,4.59941,2453.830,38.4900
2023-10-29T06:36:49,2420,42.8014,5.9826,13.2976,4.59940,2453.830,38.4901
2023-10-29T06:39:49,2420,42.8014,5.9826,13.2978,4.59940,2453.853,38.4898
2023-10-29T06:42:49,2420,42.8014,5.9826,13.2979,4.59940,2453.853,38.4897
2023-10-29T06:45:49,2420,42.8014,5.9826,13.2980,4.59940,2453.807,38.4898
2023-10-29T06:48:49,2420,42.8014,5.9826,13.2979,4.59940,2453.830,38.4898
2023-10-29T06:51:49,2420,42.8014,5.9826,13.2980,4.59940,2453.830,38.4897
2023-10-29T06:54:49,2420,42.8014,5.9826,13.2979,4.59940,2453.830,38.4899
2023-10-29T06:57:49,2420,42.8014,5.9826,13.2979,4.59941,2453.830,38.4899
2023-10-29T07:00:49,2420,42.8014,5.9826,13.2975,4.59940,2453.853,38.4902
2023-10-29T07:03:49,2420,42.8014,5.9826,13.2978,4.59942,2453.815,38.4901
2023-10-29T07:06:49,2420,42.8014,5.9826,13.2979,4.59940,2453.815,38.4897
2023-10-29T07:09:49,2420,42.8014,5.9826,13.2978,4.59940,2453.830,38.4899
2023-10-29T07:12:49,2420,42.8014,5.9826,13.2976,4.59940,2453.830,38.4901
2023-10-29T07:15:49,2420,42.8014,5.9826,13.2978,4.59940,2453.815,38.4899
2023-10-29T07:18:49,2420,42.8014,5.9826,13.2979,4.59939,2453.830,38.4897
2023-10-29T07:21:49,2420,42.8014,5.9826,13.2979,4.59940,2453.793,38.4899
2023-10-29T07:24:49,2420,42.8014,5.9826,13.2977,4.59939,2453.830,38.4899
2023-10-29T07:27:49,2420,42.8014,5.9826,13.2976,4.59940,2453.830,38.4901
2023-10-29T07:30:49,2420,42.8014,5.9826,13.2979,4.59940,2453.807,38.4897
2023-10-29T07:33:49,2420,42.8014,5.9826,13.2983,4.59940,2453.830,38.4894
2023-10-29T07:36:49,2420,42.8014,5.9826,13.2977,4.59939,2453.853,38.4899
2023-10-29T07:39:49,2420,42.8014,5.9826,13.2978,4.59940,2453.830,38.4899
2023-10-29T07:42:49,2420,42.8014,5.9826,13.2977,4.59940,2453.830,38.4901
2023-10-29T07:45:49,2420,42.8014,5.9826,13.2981,4.59940,2453.830,38.4897
2023-10-29T07:48:49,2420,42.8014,5.9826,13.2979,4.59940,2453.830,38.4899
2023-10-29T07:51:49,2420,42.8014,5.9826,13.2977,4.59941,2453.830,38.4902
2023-10-29T07:54:49,2420,42.8014,5.9826,13.2975,4.59940,2453.830,38.4902
2023-10-29T07:57:49,2420,42.8014,5.9826,13.2975,4.59940,2453.830,38.4902
2023-10-29T08:00:49,2420,42.8014,5.9826,13.2979,4.59941,2453.830,38.4899
2023-10-29T08:03:49,2420,42.8014,5.9826,13.2977,4.59940,2453.845,38.4900
2023-10-29T08:06:49,2420,42.8014,5.9826,13.2976,4.59941,2453.830,38.4902
2023-10-29T08:09:49,2420,42.8014,5.9826,13.2981,4.59941,2453.807,38.4897
2023-10-29T08:12:49,2420,42.8014,5.9826,13.2981,4.59940,2453.830,38.4897
2023-10-29T08:15:49,2420,42.8014,5.9826,13.2981,4.59942,2453.815,38.4898
2023-10-29T08:18:49,2420,42.8014,5.9826,13.2979,4.59942,2453.830,38.4899
2023-10-29T08:21:49,2420,42.8014,5.9826,13.2982,4.59940,2453.853,38.4896
2023-10-29T08:24:49,2420,42.8014,5.9826,13.2974,4.59942,2453.807,38.4905
2023-10-29T08:27:49,2420,42.8014,5.9826,13.2978,4.59941,2453.785,38.4901
2023-10-29T08:30:49,2420,42.8014,5.9826,13.2979,4.59940,2453.853,38.4899
2023-10-29T08:33:49,2420,42.8014,5.9826,13.2977,4.59941,2453.807,38.4902
2023-10-29T08:36:49,2420,42.8014,5.9826,13.2983,4.59941,2453.830,38.4895
2023-10-29T08:39:49,2420,42.8014,5.9826,13.2978,4.59941,2453.830,38.4900
2023-10-29T08:42:49,2420,42.8014,5.9826,13.2983,4.59943,2453.822,38.4897
2023-10-29T08:45:49,2420,42.8014,5.9826,13.2979,4.59942,2453.822,38.4900
2023-10-29T08:48:49,2420,42.8014,5.9826,13.2981,4.59943,2453.815,38.4899
2023-10-29T08:51:49,2420,42.8014,5.9826,13.2984,4.59943,2453.807,38.4896
2023-10-29T08:54:49,2420,42.8014,5.9826,13.2979,4.59941,2453.807,38.4899
2023-10-29T08:57:49,2420,42.8014,5.9826,13.2982,4.59941,2453.785,38.4897
2023-10-29T09:00:49,2420,42.8014,5.9826,13.2981,4.59943,2453.807,38.4899
2023-10-29T09:03:49,2420,42.8014,5.9826,13.2982,4.59944,2453.785,38.4900
2023-10-29T09:06:49,2420,42.8014,5.9826,13.2981,4.59941,2453.807,38.4897
2023-10-29T09:09:49,2420,42.8014,5.9826,13.2979,4.59941,2453.793,38.4899
2023-10-29T09:12:49,2420,42.8014,5.9826,13.2978,4.59945,2453.822,38.4904
2023-10-29T09:15:49,2420,42.8014,5.9826,13.2982,4.59940,2453.785,38.4896
2023-10-29T09:18:49,2420,42.8014,5.9826,13.2978,4.59940,2453.785,38.4899
2023-10-29T09:21:49,2420,42.8014,5.9826,13.2981,4.59943,2453.807,38.4899
2023-10-29T09:24:49,2420,42.8014,5.9826,13.2981,4.59942,2453.785,38.4898
2023-10-29T09:27:49,2420,42.8014,5.9826,13.2981,4.59940,2453.800,38.4896
2023-10-29T09:30:49,2420,42.8014,5.9826,13.2982,4.59940,2453.785,38.4896
2023-10-29T09:33:49,2420,42.8014,5.9826,13.2979,4.59942,2453.762,38.4900
2023-10-29T09:36:49,2420,42.8014,5.9826,13.2982,4.59940,2453.762,38.4896
2023-10-29T09:39:49,2420,42.8014,5.9826,13.2983,4.59943,2453.785,38.4897
2023-10-29T09:42:49,2420,42.8014,5.9826,13.2980,4.59942,2453.785,38.4899
2023-10-29T09:45:49,2420,42.8014,5.9826,13.2981,4.59943,2453.785,38.4899
2023-10-29T09:48:49,2420,42.8014,5.9826,13.2982,4.59942,2453.748,38.4897
2023-10-29T09:51:49,2420,42.8014,5.9826,13.2977,4.59941,2453.762,38.4902
2023-10-29T09:54:50,2420,42.8014,5.9826,13.2982,4.59942,2453.793,38.4897
2023-10-29T09:57:49,2420,42.8014,5.9826,13.2979,4.59941,2453.762,38.4899
2023-10-29T10:00:49,2420,42.8014,5.9826,13.2982,4.59940,2453.762,38.4896
2023-10-29T10:03:49,2420,42.8014,5.9826,13.2979,4.59941,2453.732,38.4899
2023-10-29T10:06:49,2420,42.8014,5.9826,13.2981,4.59940,2453.785,38.4897
2023-10-29T10:09:49,2420,42.8014,5.9826,13.2981,4.59942,2453.762,38.4898
2023-10-29T10:12:49,2420,42.8014,5.9826,13.2979,4.59944,2453.740,38.4903
2023-10-29T10:15:49,2420,42.8014,5.9826,13.2979,4.59942,2453.740,38.4900
2023-10-29T10:18:49,2420,42.8014,5.9826,13.2979,4.59943,2453.762,38.4900
2023-10-29T10:21:49,2420,42.8014,5.9826,13.2978,4.59943,2453.762,38.4902
2023-10-29T10:24:49,2420,42.8014,5.9826,13.2979,4.59942,2453.740,38.4900
2023-10-29T10:27:49,2420,42.8014,5.9826,13.2982,4.59942,2453.754,38.4897
2023-10-29T10:30:49,2420,42.8014,5.9826,13.2981,4.59941,2453.762,38.4898
2023-10-29T10:33:49,2420,42.8014,5.9826,13.2980,4.59940,2453.740,38.4898
2023-10-29T10:36:49,2420,42.8014,5.9826,13.2979,4.59942,2453.762,38.4900
2023-10-29T10:39:49,2420,42.8014,5.9826,13.2982,4.59941,2453.740,38.4897
2023-10-29T10:42:49,2420,42.8014,5.9826,13.2981,4.59940,2453.740,38.4897
2023-10-29T10:45:49,2420,42.8014,5.9826,13.2979,4.59941,2453.740,38.4900
2023-10-29T10:48:49,2420,42.8014,5.9826,13.2980,4.59940,2453.740,38.4898
2023-10-29T10:51:49,2420,42.8014,5.9826,13.2979,4.59943,2453.740,38.4901
2023-10-29T10:54:49,2420,42.8014,5.9826,13.2979,4.59942,2453.740,38.4900
2023-10-29T10:57:49,2420,42.8014,5.9826,13.2980,4.59941,2453.740,38.4898
2023-10-29T11:00:49,2420,42.8014,5.9826,13.2979,4.59941,2453.740,38.4899
2023-10-29T11:03:49,2420,42.8014,5.9826,13.2981,4.59942,2453.717,38.4898
2023-10-29T11:06:49,2420,42.8014,5.9826,13.2980,4.59942,2453.740,38.4899
2023-10-29T11:09:49,2420,42.8014,5.9826,13.2979,4.59941,2453.717,38.4900
2023-10-29T11:12:49,2420,42.8014,5.9826,13.2983,4.59941,2453.740,38.4896
2023-10-29T11:15:49,2420,42.8014,5.9826,13.2981,4.59940,2453.695,38.4897
2023-10-29T11:18:49,2420,42.8014,5.9826,13.2978,4.59941,2453.717,38.4900
2023-10-29T11:21:50,2420,42.8014,5.9826,13.2981,4.59940,2453.695,38.4897
2023-10-29T11:24:49,2420,42.8014,5.9826,13.2982,4.59943,2453.680,38.4898
2023-10-29T11:27:49,2420,42.8014,5.9826,13.2978,4.59942,2453.717,38.4902
2023-10-29T11:30:49,2420,42.8014,5.9826,13.2976,4.59941,2453.695,38.4903
2023-10-29T11:33:49,2420,42.8014,5.9826,13.2982,4.59942,2453.717,38.4897
2023-10-29T11:36:49,2420,42.8014,5.9826,13.2978,4.59941,2453.717,38.4901
2023-10-29T11:39:49,2420,42.8014,5.9826,13.2979,4.59941,2453.717,38.4899
2023-10-29T11:42:49,2420,42.8014,5.9826,13.2985,4.59943,2453.709,38.4896
2023-10-29T11:45:49,2420,42.8014,5.9826,13.2980,4.59943,2453.695,38.4900
2023-10-29T11:48:49,2420,42.8014,5.9826,13.2977,4.59941,2453.672,38.4902
2023-10-29T11:51:49,2420,42.8014,5.9826,13.2976,4.59941,2453.695,38.4903
2023-10-29T11:54:49,2420,42.8014,5.9826,13.2978,4.59941,2453.680,38.4901
2023-10-29T11:57:49,2420,42.8014,5.9826,13.2979,4.59940,2453.672,38.4899
2023-10-29T12:00:49,2420,42.8014,5.9826,13.2978,4.59941,2453.672,38.4901
2023-10-29T12:03:49,2420,42.8014,5.9826,13.2979,4.59940,2453.695,38.4898
2023-10-29T12:06:49,2420,42.8014,5.9826,13.2982,4.59939,2453.672,38.4895
2023-10-29T12:09:49,2420,42.8014,5.9826,13.2984,4.59941,2453.672,38.4895
2023-10-29T12:12:49,2420,42.8014,5.9826,13.2978,4.59942,2453.649,38.4901
2023-10-29T12:15:49,2420,42.8014,5.9826,13.2979,4.59939,2453.649,38.4897
2023-10-29T12:18:49,2420,42.8014,5.9826,13.2982,4.59940,2453.672,38.4896
2023-10-29T12:21:49,2420,42.8014,5.9826,13.2977,4.59940,2453.695,38.4901
2023-10-29T12:24:49,2420,42.8014,5.9826,13.2977,4.59941,2453.695,38.4902
2023-10-29T12:27:49,2420,42.8014,5.9826,13.2981,4.59941,2453.672,38.4898
2023-10-29T12:30:49,2420,42.8014,5.9826,13.2977,4.59940,2453.672,38.4901
2023-10-29T12:33:49,2420,42.8014,5.9826,13.2978,4.59943,2453.672,38.4903
2023-10-29T12:36:49,2420,42.8014,5.9826,13.2979,4.59941,2453.672,38.4900
2023-10-29T12:39:49,2420,42.8014,5.9826,13.2981,4.59940,2453.672,38.4897
2023-10-29T12:42:49,2420,42.8014,5.9826,13.2980,4.59941,2453.649,38.4899
2023-10-29T12:45:49,2420,42.8014,5.9826,13.2981,4.59940,2453.649,38.4897
2023-10-29T12:48:49,2420,42.8014,5.9826,13.2978,4.59940,2453.627,38.4900
2023-10-29T12:51:49,2420,42.8014,5.9826,13.2979,4.59941,2453.635,38.4900
2023-10-29T12:54:49,2420,42.8014,5.9826,13.2980,4.59940,2453.649,38.4897
2023-10-29T12:57:49,2420,42.8014,5.9826,13.2981,4.59940,2453.649,38.4897
2023-10-29T13:00:49,2420,42.8014,5.9826,13.2981,4.59940,2453.649,38.4897
2023-10-29T13:03:50,2420,42.8014,5.9826,13.2978,4.59939,2453.649,38.4899
2023-10-29T13:06:49,2420,42.8014,5.9826,13.2978,4.59939,2453.672,38.4899
2023-10-29T13:09:49,2420,42.8014,5.9826,13.2979,4.59939,2453.649,38.4897
2023-10-29T13:12:49,2420,42.8014,5.9826,13.2978,4.59939,2453.627,38.4899
2023-10-29T13:15:49,2420,42.8014,5.9826,13.2981,4.59940,2453.604,38.4897
2023-10-29T13:18:49,2420,42.8014,5.9826,13.2976,4.59940,2453.627,38.4902
2023-10-29T13:21:49,2420,42.8014,5.9826,13.2979,4.59940,2453.627,38.4899
2023-10-29T13:24:49,2420,42.8014,5.9826,13.2982,4.59940,2453.627,38.4897
2023-10-29T13:27:49,2420,42.8014,5.9826,13.2978,4.59940,2453.604,38.4900
2023-10-29T13:30:50,2420,42.8014,5.9826,13.2978,4.59941,2453.612,38.4901
2023-10-29T13:33:49,2420,42.8014,5.9826,13.2979,4.59940,2453.612,38.4899
2023-10-29T13:36:49,2420,42.8014,5.9826,13.2979,4.59939,2453.627,38.4898
2023-10-29T13:39:49,2420,42.8014,5.9826,13.2978,4.59939,2453.604,38.4899
2023-10-29T13:42:49,2420,42.8014,5.9826,13.2981,4.59940,2453.604,38.4897
2023-10-29T13:45:49,2420,42.8014,5.9826,13.2979,4.59940,2453.604,38.4899
2023-10-29T13:48:49,2420,42.8014,5.9826,13.2982,4.59940,2453.604,38.4896
2023-10-29T13:51:49,2420,42.8014,5.9826,13.2978,4.59940,2453.627,38.4900
2023-10-29T13:54:49,2420,42.8014,5.9826,13.2980,4.59940,2453.649,38.4897
2023-10-29T13:57:49,2420,42.8014,5.9826,13.2980,4.59942,2453.627,38.4900
2023-10-29T14:00:49,2420,42.8014,5.9826,13.2981,4.59940,2453.649,38.4897
2023-10-29T14:03:49,2420,42.8014,5.9826,13.2978,4.59940,2453.604,38.4900
2023-10-29T14:06:49,2420,42.8014,5.9826,13.2979,4.59941,2453.627,38.4899
2023-10-29T14:09:49,2420,42.8014,5.9826,13.2981,4.59940,2453.604,38.4897
2023-10-29T14:12:49,2420,42.8014,5.9826,13.2980,4.59940,2453.590,38.4898
2023-10-29T14:15:49,2420,42.8014,5.9826,13.2979,4.59941,2453.627,38.4900
2023-10-29T14:18:49,2420,42.8014,5.9826,13.2978,4.59941,2453.627,38.4901
2023-10-29T14:21:49,2420,42.8014,5.9826,13.2979,4.59940,2453.627,38.4899
2023-10-29T14:24:49,2420,42.8014,5.9826,13.2979,4.59939,2453.627,38.4898
2023-10-29T14:27:49,2420,42.8014,5.9826,13.2978,4.59940,2453.604,38.4900
2023-10-29T14:30:49,2420,42.8014,5.9826,13.2980,4.59941,2453.604,38.4899
2023-10-29T14:33:49,2420,42.8014,5.9826,13.2978,4.59940,2453.567,38.4900
2023-10-29T14:36:49,2420,42.8014,5.9826,13.2982,4.59941,2453.627,38.4897
2023-10-29T14:39:49,2420,42.8014,5.9826,13.2978,4.59940,2453.582,38.4900
2023-10-29T14:42:49,2420,42.8014,5.9826,13.2977,4.59941,2453.627,38.4902
2023-10-29T14:45:49,2420,42.8014,5.9826,13.2979,4.59940,2453.627,38.4899
2023-10-29T14:48:49,2420,42.8014,5.9826,13.2981,4.59942,2453.604,38.4899
2023-10-29T14:51:49,2420,42.8014,5.9826,13.2978,4.59940,2453.604,38.4901
2023-10-29T14:54:49,2420,42.8014,5.9826,13.2978,4.59940,2453.627,38.4900
2023-10-29T14:57:50,2420,42.8014,5.9826,13.2977,4.59940,2453.627,38.4902
2023-10-29T15:00:49,2420,42.8014,5.9826,13.2982,4.59940,2453.627,38.4896
2023-10-29T15:03:49,2420,42.8014,5.9826,13.2979,4.59942,2453.627,38.4901
2023-10-29T15:06:49,2420,42.8014,5.9826,13.2979,4.59940,2453.649,38.4899
2023-10-29T15:09:50,2420,42.8014,5.9826,13.2979,4.59940,2453.641,38.4899
2023-10-29T15:12:49,2420,42.8014,5.9826,13.2980,4.59939,2453.627,38.4897
2023-10-29T15:15:49,2420,42.8014,5.9826,13.2978,4.59940,2453.627,38.4899
2023-10-29T15:18:49,2420,42.8014,5.9826,13.2980,4.59939,2453.627,38.4897
2023-10-29T15:21:49,2420,42.8014,5.9826,13.2977,4.59940,2453.649,38.4901
2023-10-29T15:24:49,2420,42.8014,5.9826,13.2979,4.59940,2453.627,38.4899
2023-10-29T15:27:49,2420,42.8014,5.9826,13.2978,4.59940,2453.649,38.4899
2023-10-29T15:30:49,2420,42.8014,5.9826,13.2979,4.59940,2453.635,38.4899
2023-10-29T15:33:49,2420,42.8014,5.9826,13.2979,4.59940,2453.649,38.4899
2023-10-29T15:36:49,2420,42.8014,5.9826,13.2979,4.59940,2453.649,38.4899
2023-10-29T15:39:49,2420,42.8014,5.9826,13.2975,4.59940,2453.672,38.4903
2023-10-29T15:42:49,2420,42.8014,5.9826,13.2980,4.59940,2453.649,38.4897
2023-10-29T15:45:49,2420,42.8014,5.9826,13.2979,4.59940,2453.657,38.4899
2023-10-29T15:48:49,2420,42.8014,5.9826,13.2982,4.59939,2453.672,38.4895
2023-10-29T15:51:49,2420,42.8014,5.9826,13.2979,4.59940,2453.672,38.4899
2023-10-29T15:54:49,2420,42.8014,5.9826,13.2980,4.59940,2453.672,38.4897
2023-10-29T15:57:50,2420,42.8014,5.9826,13.2979,4.59939,2453.672,38.4897
2023-10-29T16:00:49,2420,42.8014,5.9826,13.2975,4.59940,2453.672,38.4903
2023-10-29T16:03:49,2420,42.8014,5.9826,13.2983,4.59940,2453.672,38.4894